Norwegian Spirit — C6TQ6 — position and weather

sailwx.info

Track history (hours):
 
Tides and Currents Weather Stations Pressure Air Temp Water Temp Dewpoint Dewpoint Depression Visibility Wind Speed Wind Dir Waves Ship Positions

Norwegian Spirit

Operator: Norwegian Cruise Line

Last reported at 2014-Nov-26 03:21 UTC. Time now 2014-Nov-26 15:07 UTC.
Position N 41°20' E 002°10'.

Type: Ship. MMSI: 311746000.

Date/timePositionNaut miles runAvg speedWind from/ knotsBaromVisibWave heightAir tempDewpointWater temp
2014-Nov-26 03:21N 41°20' E 002°10'7 8.8
2014-Nov-26 02:31N 41°16' E 002°18'1717.1
2014-Nov-26 01:33N 41°24' E 002°37'1717.4
2014-Nov-26 00:33N 41°33' E 002°57'1817.8
2014-Nov-25 23:32N 41°43' E 003°18'1818.2
2014-Nov-25 22:33N 41°52' E 003°38'2121.5
2014-Nov-25 21:33N 42°04' E 004°02'2221.8
2014-Nov-25 20:33N 42°16' E 004°27'5221.3
2014-Nov-25 18:05N 42°45' E 005°26'1121.7
2014-Nov-25 17:34N 42°51' E 005°39'1919.1
2014-Nov-25 16:33N 43°05' E 005°58'2 2.3
2014-Nov-25 15:31N 43°07' E 005°56'0 0.0
2014-Nov-25 14:31N 43°07' E 005°56'0 0.0
2014-Nov-25 13:33N 43°07' E 005°56'0 0.0
2014-Nov-25 12:33N 43°07' E 005°56'0 0.0
2014-Nov-25 11:32N 43°07' E 005°56'0 0.0
2014-Nov-25 10:32N 43°07' E 005°56'0 0.0
2014-Nov-25 09:32N 43°07' E 005°56'0 0.0
2014-Nov-25 08:31N 43°07' E 005°56'0 0.3
2014-Nov-25 07:33N 43°07' E 005°55'8 8.4
2014-Nov-25 06:33N 43°01' E 006°04'1413.5
2014-Nov-25 05:33N 42°57' E 006°21'1515.4
2014-Nov-25 04:33N 42°59' E 006°42'1615.8
2014-Nov-25 03:33N 43°01' E 007°04'1915.6
2014-Nov-25 02:19N 43°04' E 007°30'6016.0
2014-Nov-24 22:33N 43°13' E 008°51'1616.2
2014-Nov-24 21:34N 43°15' E 009°13'1616.3
2014-Nov-24 20:34N 43°17' E 009°35'1616.1
2014-Nov-24 19:34N 43°20' E 009°57'1717.2
2014-Nov-24 18:34N 43°32' E 010°14'3 3.1
2014-Nov-24 17:33N 43°33' E 010°18'0 0.0
2014-Nov-24 16:29N 43°33' E 010°18'0 0.0
2014-Nov-24 15:32N 43°33' E 010°18'0 0.0
2014-Nov-24 14:32N 43°33' E 010°18'0 0.0
2014-Nov-24 13:31N 43°33' E 010°18'0 0.0
2014-Nov-24 12:28N 43°33' E 010°18'0 0.0
2014-Nov-24 11:33N 43°33' E 010°18'0 0.0
2014-Nov-24 10:33N 43°33' E 010°18'0 0.0
2014-Nov-24 09:32N 43°33' E 010°18'0 0.0
2014-Nov-24 08:26N 43°33' E 010°18'0 0.0
2014-Nov-24 07:32N 43°33' E 010°18'0 0.0
2014-Nov-24 06:34N 43°33' E 010°18'8 7.7
2014-Nov-24 05:33N 43°27' E 010°12'1413.8
2014-Nov-24 04:34N 43°14' E 010°06'1413.6
2014-Nov-24 03:34N 43°01' E 010°01'5512.7
2014-Nov-23 23:12N 42°06' E 010°16'152 6.1
2014-Nov-22 22:19N 40°45' E 013°07'1214.8
2014-Nov-22 21:33N 40°42' E 013°22'1515.1
2014-Nov-22 20:31N 40°39' E 013°42'1414.9
2014-Nov-22 19:33N 40°38' E 014°01'1514.8
2014-Nov-22 18:33N 40°48' E 014°16'2 0.2
2014-Nov-22 06:24N 40°50' E 014°17'1012.2
2014-Nov-22 05:33N 40°39' E 014°17'1716.6
2014-Nov-22 04:32N 40°23' E 014°21'15216.5
2014-Nov-21 19:19N 38°02' E 015°36'40119.3
2014-Nov-20 22:34N 36°44' E 023°51'2221.8
2014-Nov-20 21:34N 36°54' E 024°15'2221.8
2014-Nov-20 20:33N 37°07' E 024°37'2221.9
2014-Nov-20 19:33N 37°20' E 024°59'1817.9
2014-Nov-20 18:33N 37°28' E 025°19'0 0.0
2014-Nov-20 17:32N 37°28' E 025°19'0 0.0
2014-Nov-20 16:32N 37°28' E 025°19'0 0.0
2014-Nov-20 15:31N 37°28' E 025°19'0 0.0
2014-Nov-20 14:31N 37°28' E 025°19'0 0.0
2014-Nov-20 13:30N 37°28' E 025°19'0 0.0
2014-Nov-20 12:30N 37°28' E 025°19'0 0.0
2014-Nov-20 11:30N 37°28' E 025°19'0 0.0
2014-Nov-20 10:29N 37°28' E 025°19'6 6.1
2014-Nov-20 09:33N 37°33' E 025°17'1717.2
2014-Nov-20 08:34N 37°50' E 025°15'34 0.8
2014-Nov-18 15:20N 38°03' E 025°55'27 2.0
2014-Nov-18 01:33N 37°55' E 026°29'1515.2
2014-Nov-18 00:33N 37°55' E 026°10'1515.0
2014-Nov-17 23:33N 37°53' E 025°51'1413.8
2014-Nov-17 22:33N 37°46' E 025°36'1414.5
2014-Nov-17 21:33N 37°36' E 025°22'1414.0
2014-Nov-17 20:33N 37°31' E 025°06'1515.4
2014-Nov-17 19:33N 37°33' E 024°47'1716.6
2014-Nov-17 18:33N 37°31' E 024°26'1716.8
2014-Nov-17 17:33N 37°32' E 024°05'1818.0
2014-Nov-17 16:33N 37°39' E 023°44'1717.0
2014-Nov-17 15:33N 37°55' E 023°37'2 1.5
2014-Nov-17 14:32N 37°56' E 023°38'0 0.0
2014-Nov-17 13:31N 37°56' E 023°38'0 0.0
2014-Nov-17 12:31N 37°56' E 023°38'0 0.0
2014-Nov-17 11:31N 37°56' E 023°38'0 0.0
2014-Nov-17 10:33N 37°56' E 023°38'0 0.0
2014-Nov-17 09:33N 37°56' E 023°38'0 0.0
2014-Nov-17 08:32N 37°56' E 023°38'0 0.0
2014-Nov-17 07:32N 37°56' E 023°38'0 0.0
2014-Nov-17 06:28N 37°56' E 023°38'0 0.0
2014-Nov-17 05:31N 37°56' E 023°38'2 1.6
2014-Nov-17 04:34N 37°55' E 023°36'5 5.4
2014-Nov-17 03:33N 37°51' E 023°39'1313.4
2014-Nov-17 02:33N 37°38' E 023°45'4714.8
2014-Nov-16 23:24N 36°52' E 023°32'1514.9
2014-Nov-16 22:25N 36°39' E 023°25'4914.3
2014-Nov-16 19:00N 36°18' E 022°30'1615.7 190 / 101017.0 20.016.921.0
2014-Nov-16 18:00N 36°24' E 022°12'   220 / 31017.0 20.016.921.0
Track history (hours):
 
Tides and Currents Weather Stations Pressure Air Temp Water Temp Dewpoint Dewpoint Depression Visibility Wind Speed Wind Dir Waves Ship Positions

Norwegian Spirit

Operator: Norwegian Cruise Line

Last reported at 2014-Nov-26 03:21 UTC. Time now 2014-Nov-26 15:07 UTC.
Position N 41°20' E 002°10'.

Type: Ship. MMSI: 311746000.

Date/timePositionNaut miles runAvg speedWind from/ knotsBaromVisibWave heightAir tempDewpointWater temp
2014-Nov-26 03:21N 41°20' E 002°10'7 8.8
2014-Nov-26 02:31N 41°16' E 002°18'1717.1
2014-Nov-26 01:33N 41°24' E 002°37'1717.4
2014-Nov-26 00:33N 41°33' E 002°57'1817.8
2014-Nov-25 23:32N 41°43' E 003°18'1818.2
2014-Nov-25 22:33N 41°52' E 003°38'2121.5
2014-Nov-25 21:33N 42°04' E 004°02'2221.8
2014-Nov-25 20:33N 42°16' E 004°27'5221.3
2014-Nov-25 18:05N 42°45' E 005°26'1121.7
2014-Nov-25 17:34N 42°51' E 005°39'1919.1
2014-Nov-25 16:33N 43°05' E 005°58'2 2.3
2014-Nov-25 15:31N 43°07' E 005°56'0 0.0
2014-Nov-25 14:31N 43°07' E 005°56'0 0.0
2014-Nov-25 13:33N 43°07' E 005°56'0 0.0
2014-Nov-25 12:33N 43°07' E 005°56'0 0.0
2014-Nov-25 11:32N 43°07' E 005°56'0 0.0
2014-Nov-25 10:32N 43°07' E 005°56'0 0.0
2014-Nov-25 09:32N 43°07' E 005°56'0 0.0
2014-Nov-25 08:31N 43°07' E 005°56'0 0.3
2014-Nov-25 07:33N 43°07' E 005°55'8 8.4
2014-Nov-25 06:33N 43°01' E 006°04'1413.5
2014-Nov-25 05:33N 42°57' E 006°21'1515.4
2014-Nov-25 04:33N 42°59' E 006°42'1615.8
2014-Nov-25 03:33N 43°01' E 007°04'1915.6
2014-Nov-25 02:19N 43°04' E 007°30'6016.0
2014-Nov-24 22:33N 43°13' E 008°51'1616.2
2014-Nov-24 21:34N 43°15' E 009°13'1616.3
2014-Nov-24 20:34N 43°17' E 009°35'1616.1
2014-Nov-24 19:34N 43°20' E 009°57'1717.2
2014-Nov-24 18:34N 43°32' E 010°14'3 3.1
2014-Nov-24 17:33N 43°33' E 010°18'0 0.0
2014-Nov-24 16:29N 43°33' E 010°18'0 0.0
2014-Nov-24 15:32N 43°33' E 010°18'0 0.0
2014-Nov-24 14:32N 43°33' E 010°18'0 0.0
2014-Nov-24 13:31N 43°33' E 010°18'0 0.0
2014-Nov-24 12:28N 43°33' E 010°18'0 0.0
2014-Nov-24 11:33N 43°33' E 010°18'0 0.0
2014-Nov-24 10:33N 43°33' E 010°18'0 0.0
2014-Nov-24 09:32N 43°33' E 010°18'0 0.0
2014-Nov-24 08:26N 43°33' E 010°18'0 0.0
2014-Nov-24 07:32N 43°33' E 010°18'0 0.0
2014-Nov-24 06:34N 43°33' E 010°18'8 7.7
2014-Nov-24 05:33N 43°27' E 010°12'1413.8
2014-Nov-24 04:34N 43°14' E 010°06'1413.6
2014-Nov-24 03:34N 43°01' E 010°01'5512.7
2014-Nov-23 23:12N 42°06' E 010°16'152 6.1
2014-Nov-22 22:19N 40°45' E 013°07'1214.8
2014-Nov-22 21:33N 40°42' E 013°22'1515.1
2014-Nov-22 20:31N 40°39' E 013°42'1414.9
2014-Nov-22 19:33N 40°38' E 014°01'1514.8
2014-Nov-22 18:33N 40°48' E 014°16'2 0.2
2014-Nov-22 06:24N 40°50' E 014°17'1012.2
2014-Nov-22 05:33N 40°39' E 014°17'1716.6
2014-Nov-22 04:32N 40°23' E 014°21'15216.5
2014-Nov-21 19:19N 38°02' E 015°36'40119.3
2014-Nov-20 22:34N 36°44' E 023°51'2221.8
2014-Nov-20 21:34N 36°54' E 024°15'2221.8
2014-Nov-20 20:33N 37°07' E 024°37'2221.9
2014-Nov-20 19:33N 37°20' E 024°59'1817.9
2014-Nov-20 18:33N 37°28' E 025°19'0 0.0
2014-Nov-20 17:32N 37°28' E 025°19'0 0.0
2014-Nov-20 16:32N 37°28' E 025°19'0 0.0
2014-Nov-20 15:31N 37°28' E 025°19'0 0.0
2014-Nov-20 14:31N 37°28' E 025°19'0 0.0
2014-Nov-20 13:30N 37°28' E 025°19'0 0.0
2014-Nov-20 12:30N 37°28' E 025°19'0 0.0
2014-Nov-20 11:30N 37°28' E 025°19'0 0.0
2014-Nov-20 10:29N 37°28' E 025°19'6 6.1
2014-Nov-20 09:33N 37°33' E 025°17'1717.2
2014-Nov-20 08:34N 37°50' E 025°15'34 0.8
2014-Nov-18 15:20N 38°03' E 025°55'27 2.0
2014-Nov-18 01:33N 37°55' E 026°29'1515.2
2014-Nov-18 00:33N 37°55' E 026°10'1515.0
2014-Nov-17 23:33N 37°53' E 025°51'1413.8
2014-Nov-17 22:33N 37°46' E 025°36'1414.5
2014-Nov-17 21:33N 37°36' E 025°22'1414.0
2014-Nov-17 20:33N 37°31' E 025°06'1515.4
2014-Nov-17 19:33N 37°33' E 024°47'1716.6
2014-Nov-17 18:33N 37°31' E 024°26'1716.8
2014-Nov-17 17:33N 37°32' E 024°05'1818.0
2014-Nov-17 16:33N 37°39' E 023°44'1717.0
2014-Nov-17 15:33N 37°55' E 023°37'2 1.5
2014-Nov-17 14:32N 37°56' E 023°38'0 0.0
2014-Nov-17 13:31N 37°56' E 023°38'0 0.0
2014-Nov-17 12:31N 37°56' E 023°38'0 0.0
2014-Nov-17 11:31N 37°56' E 023°38'0 0.0
2014-Nov-17 10:33N 37°56' E 023°38'0 0.0
2014-Nov-17 09:33N 37°56' E 023°38'0 0.0
2014-Nov-17 08:32N 37°56' E 023°38'0 0.0
2014-Nov-17 07:32N 37°56' E 023°38'0 0.0
2014-Nov-17 06:28N 37°56' E 023°38'0 0.0
2014-Nov-17 05:31N 37°56' E 023°38'2 1.6
2014-Nov-17 04:34N 37°55' E 023°36'5 5.4
2014-Nov-17 03:33N 37°51' E 023°39'1313.4
2014-Nov-17 02:33N 37°38' E 023°45'4714.8
2014-Nov-16 23:24N 36°52' E 023°32'1514.9
2014-Nov-16 22:25N 36°39' E 023°25'4914.3
2014-Nov-16 19:00N 36°18' E 022°30'1615.7 190 / 101017.0 20.016.921.0
2014-Nov-16 18:00N 36°24' E 022°12'   220 / 31017.0 20.016.921.0

Dump ship's entire track history